Location: Tucson
(32.2217°N, 110.9265°W)
Time: 18:39:32
(UTC-07:00)

ISS - Pass Details

Date: 06 October 2021
Orbit: 417 x 423 km, 51.6° (Epoch: 22 October)

Event Time Altitude Azimuth Distance (km) Brightness Sun altitude
Rises 19:57:31 0° 301° (WNW) 2,357 1.2 -25.3°
Reaches altitude 10° 19:59:50 10° 288° (WNW) 1,491 0.0 -25.8°
Enters shadow 20:02:04 24° 248° (WSW) 921 -1.5 -26.2°
